Regional Weather Roundup
Issued by NWS

Home | Current Version | Previous Version | Text Only | Print | Product List | Glossary On
Versions: 1 2 3 4 5 6 7 8 9 10 11 12 13 14 15 16 17 18 19 20 21 22 23 24 25 26 27 28 29 30 31 32 33 34 35 36 37 38 39 40 41 42 43 44 45 46 47 48 49 50
000
ASUS43 KMPX 220801
RWRMN
WEATHER ROUNDUP FOR MINNESOTA
NATIONAL WEATHER SERVICE TWIN CITIES/CHANHASSEN MN
300 AM CDT FRI AUG 22 2014


NOTE: "FAIR" INDICATES FEW OR NO CLOUDS BELOW 12,000 FEET WITH NO
SIGNIFICANT WEATHER AND/OR OBSTRUCTIONS TO VISIBILITY. N/A MEANS
CURRENT SKY AND/OR WEATHER CONDITIONS ARE NOT AVAILABLE.

MNZ060>063-068>070-220900-
   Twin Cities Metro

CITY           SKY/WX    TMP DP  RH WIND       PRES   REMARKS
TWIN CITIES    PTCLDY    72  71  97 CALM      29.85S
ST PAUL        PTCLDY    71  70  96 NW5       29.84S
CRYSTAL        CLOUDY    73  70  90 NW5       29.85R
BLAINE         CLOUDY    73  73 100 CALM      29.85S FOG
LAKEVILLE      FOG       72  70  94 NW8       29.86R VSB 1
EDEN PRAIRIE   CLEAR     71  70  96 CALM      29.85R FOG
SOUTH ST PAUL  MOCLDY    73  71  94 NW3       29.85S FOG
LAKE ELMO      CLOUDY    72  72 100 NW3       29.86R FOG
$$
MNZ001>005-007-008-013>017-022>024-027-028-220900-
   Northwest Minnesota

CITY           SKY/WX    TMP DP  RH WIND       PRES   REMARKS
BEMIDJI        CLOUDY    66  65  96 E6        29.92S
HALLOCK        MOCLDY    66  64  94 N6        29.91R
ROSEAU         PTCLDY    66  61  82 CALM      29.91S
WARROAD        CLOUDY    66  64  94 E5        29.92S
THIEF RVR FALL CLOUDY    68  66  94 E5        29.90R
CROOKSTON      FOG       66  64  94 CALM      29.90R VSB 1/2
FOSSTON        CLOUDY    66  63  88 CALM      29.91S
DETROIT LAKES  CLOUDY    68  68 100 CALM      29.92R FOG
MOORHEAD       FOG       66  66 100 CALM      29.89S VSB 1/4
PARK RAPIDS    CLOUDY    67  67 100 N3        29.92R FOG
MAHNOMEN       CLOUDY    68  67  98 CALM      29.90S
$$
MNZ006-009>011-018-025>026-220900-
   North Central Minnesota

CITY           SKY/WX    TMP DP  RH WIND       PRES   REMARKS
BAUDETTE       CLOUDY    65  63  93 E5        29.92R
FLAG ISLAND    CLOUDY    66  64  94 CALM      29.92R
INTL FALLS     CLOUDY    63  60  90 SE5       29.94R
WASKISH        CLOUDY    66  64  94 CALM      29.92S
BIG FORK       MOCLDY    64  63  94 CALM      29.94S
LONGVILLE      CLOUDY    64  64 100 CALM      29.92R FOG
GRAND RAPIDS   CLOUDY    63  61  94 CALM      29.93R
CRANE LAKE     CLOUDY    59  57  94 CALM      29.96R
ORR            CLOUDY    63  57  82 CALM      29.92R
COOK           RAIN      63  61  94 CALM      29.94R
WALKER         CLOUDY    66  65  97 CALM      29.91S
$$
MNZ012-019>021-037-220900-
   Northeast Minnesota

CITY           SKY/WX    TMP DP  RH WIND       PRES   REMARKS
DULUTH         FOG       62  60  93 E7        29.91S VSB 3/4
ELY            RAIN      61  59  94 CALM      29.95R
HIBBING        CLOUDY    65  60  84 E5        29.93R
EVELETH        CLOUDY    63  61  94 CALM      29.93F
DULUTH HARBOR  CLOUDY    61  61 100 NE17      29.91S FOG
TWO HARBORS    CLOUDY    61  55  82 NE5       29.90S HAZE
SILVER BAY     CLOUDY    59  59 100 NE3       29.91S
GRAND MARAIS     N/A     61  59  93 E9        29.93S
G MARAIS ARPRT CLOUDY    59  55  88 N5        29.98R FOG
$$
MNZ029>031-032-039>041-046>048-054>057-064-220900-
   West Central Minnesota

CITY           SKY/WX    TMP DP  RH WIND       PRES   REMARKS
FERGUS FALLS   MOCLDY    68  66  94 CALM      29.89R
WHEATON        FOG       63  63 100 W3        29.90S VSB 1/2
MORRIS         FOG       66  64  94 CALM      29.88R VSB<1/4
ALEXANDRIA     CLOUDY    69  67  93 CALM      29.91S
ELBOW LAKE     FAIR      67  67  99 CALM      29.89S FOG
WADENA         FOG       66  66 100 CALM      29.90S VSB 1/2
GLENWOOD       MOCLDY    68  68 100 CALM      29.90S FOG
APPLETON       FOG       68  64  88 CALM      29.88R VSB 1/2
BENSON         FOG       66  64  94 CALM      29.89R VSB<1/4
ORTONVILLE     CLEAR     70  66  88 CALM      29.89R
MADISON        CLEAR     68  66  94 CALM      29.89R FOG
WILLMAR        LGT RAIN  72  70  94 CALM      29.90R VSB<1/4
$$
MNZ033>034-036-042>043-049>051-058-059-220900-
   Central Minnesota

CITY           SKY/WX    TMP DP  RH WIND       PRES   REMARKS
ST CLOUD       FOG       72  70  93 N5        29.87S VSB 1/2
SAUK CENTRE    CLOUDY    69  68  97 CALM      29.90R
PAYNESVILLE    FOG       67  67 100 NW3       29.89S VSB 1/4
AITKIN         CLOUDY    64  61  88 CALM      29.90R HAZE
PINE RIVER     CLOUDY    64  64 100 CALM      29.94S FOG
BRAINERD       CLOUDY    63  63 100 NE3       29.91R FOG
STAPLES        CLOUDY    66  64  94 CALM      29.90S FOG
LONG PRAIRIE   FOG       66  66 100 CALM      29.90S VSB 1/2
LITTLE FALLS   CLOUDY    66  64  94 CALM      29.89S FOG
LITCHFIELD     FOG       72  72 100 CALM      29.89R VSB 1/4
BUFFALO        CLOUDY    71  69  93 CALM      29.88R FOG
MAPLE LAKE     CLOUDY    71  71  99 CALM      29.88S FOG
$$
MNZ037-044-045-052-053-220900-
   East Central Minnesota

CITY           SKY/WX    TMP DP  RH WIND       PRES   REMARKS
PRINCETON      CLOUDY    68  66  94 N3        29.88R
MORA           CLOUDY    61  61 100 CALM      29.90R FOG
CAMBRIDGE      CLOUDY    68  61  77 NW5       29.86R
RUSH CITY      CLOUDY    65  64  95 CALM      29.87S
MOOSE LAKE     CLOUDY    61  59  94 NE5       29.89R FOG
HINCKLEY       CLOUDY    63  63 100 N5        29.88S FOG
CLOQUET        FOG       61  61 100 E7        29.91S VSB 1
MCGREGOR       CLOUDY    63  61  94 CALM      29.91R VSB 1
$$
MNZ071>073-080-081-089-090-097-098-220900-
   Southwest Minnesota

CITY           SKY/WX    TMP DP  RH WIND       PRES   REMARKS
MONTEVIDEO     FOG       70  66  88 CALM      29.90R VSB<1/4
GRANITE FALLS  FOG       68  68 100 NW5       29.89S VSB 1/4
CANBY          CLEAR     67  66  94 W3        29.90S
MARSHALL       CLEAR     66  63  88 NW8       29.88S
REDWOOD FALLS  FOG       71  71 100 CALM      29.88R VSB 1/4
OLIVIA         FOG       70  68  94 CALM      29.87S VSB 1/4
PIPESTONE      CLEAR     70  66  88 N6        29.92R
WINDOM         PTCLDY    72  68  88 CALM      29.89S
WORTHINGTON    PTCLDY    66   9  10 NW5       29.91S
JACKSON        PTCLDY    68  64  88 CALM      29.90R
TRACY          CLEAR     70  68  95 W5        29.89S
SLAYTON        CLEAR     66  65  99 CALM      29.92R
$$
MNZ065>067-074>077-082>085-091>093-220900-
   South Central Minnesota

CITY           SKY/WX    TMP DP  RH WIND       PRES   REMARKS
MANKATO        CLOUDY    72  68  88 N3        29.86S VSB<1/4
NEW ULM        FOG       70  70 100 CALM      29.87S VSB 1/4
ST JAMES       CLEAR     70  66  88 CALM      29.88S
FAIRMONT       CLEAR     68  63  83 MISG      29.89R
GLENCOE        CLOUDY    73  70  91 CALM      29.86S FOG
FARIBAULT      HAZE      75  70  83 CALM      29.87R VSB 3/4
OWATONNA       FOG       70  68  94 CALM      29.87R VSB 1/4
WASECA         FOG       72  68  88 CALM      29.88S VSB 1/4
ALBERT LEA     CLEAR     73  72  94 SW1       29.87S
$$
MNZ078>079-086>088-094>096-220900-
   Southeast Minnesota

CITY           SKY/WX    TMP DP  RH WIND       PRES   REMARKS
ROCHESTER      FOG       70  68  93 S3        29.88S VSB 1
RED WING       CLOUDY    73  72  94 CALM      29.83R
STANTON        CLOUDY    74  72  92 W3        29.84R FOG
DODGE CENTER   CLEAR     73  72  94 SW3       29.87S FOG
WINONA         CLEAR     73  72  94 CALM      29.84F
AUSTIN           N/A     72  70  94 CALM      29.87S VSB 3/4
PRESTON        MOCLDY    71  71 100 S7        29.88S FOG
$$
ABBREVIATIONS USED IN REMARKS
   TC - TEMPERATURES IN CELSIUS
  WCI - WIND CHILL INDEX
   HX - HEAT INDEX
  VSB - VISIBILITY
$$


USA.gov is the U.S. government's official web portal to all federal, state and local government web resources and services.